TimePDT,TemperatureF,Dew PointF,Humidity,Sea Level PressureIn,VisibilityMPH,Wind Direction,Wind SpeedMPH,Gust SpeedMPH,PrecipitationIn,Events,Conditions,WindDirDegrees,DateUTC
12:53 AM,51.1,50.0,96,29.83,10.0,Variable,4.6,-,N/A,,Clear,0,2013-08-23 07:53:00
1:53 AM,53.1,51.1,93,29.82,10.0,Variable,3.5,-,N/A,,Clear,0,2013-08-23 08:53:00
2:53 AM,55.0,53.1,93,29.82,10.0,South,5.8,-,N/A,,Clear,170,2013-08-23 09:53:00
3:53 AM,55.9,54.0,93,29.83,10.0,Variable,4.6,-,N/A,,Clear,0,2013-08-23 10:53:00
4:53 AM,57.0,55.0,93,29.83,10.0,Variable,5.8,17.3,N/A,,Clear,0,2013-08-23 11:53:00
5:53 AM,57.0,55.0,93,29.83,10.0,SSW,6.9,-,N/A,,Clear,200,2013-08-23 12:53:00
6:31 AM,57.2,55.4,94,29.83,10.0,South,6.9,-,N/A,,Partly Cloudy,190,2013-08-23 13:31:00
6:53 AM,55.9,55.0,97,29.84,10.0,SSW,10.4,17.3,N/A,,Mostly Cloudy,200,2013-08-23 13:53:00
7:02 AM,55.4,55.4,100,29.84,10.0,South,8.1,17.3,N/A,,Mostly Cloudy,190,2013-08-23 14:02:00
7:53 AM,55.9,55.0,97,29.85,4.0,South,6.9,-,N/A,,Overcast,170,2013-08-23 14:53:00
8:53 AM,59.0,55.9,90,29.86,10.0,SSE,9.2,-,N/A,,Mostly Cloudy,160,2013-08-23 15:53:00
9:03 AM,60.8,57.2,88,29.86,10.0,South,6.9,-,N/A,,Mostly Cloudy,170,2013-08-23 16:03:00
9:18 AM,62.6,55.4,77,29.86,10.0,South,10.4,18.4,N/A,,Scattered Clouds,190,2013-08-23 16:18:00
9:53 AM,63.0,55.9,78,29.86,10.0,South,6.9,-,N/A,,Clear,180,2013-08-23 16:53:00
10:53 AM,64.9,55.9,73,29.88,10.0,SE,10.4,18.4,N/A,,Partly Cloudy,130,2013-08-23 17:53:00
11:53 AM,66.9,55.9,68,29.88,10.0,SE,11.5,18.4,N/A,,Clear,140,2013-08-23 18:53:00
12:53 PM,70.0,55.0,59,29.89,10.0,SSE,11.5,18.4,N/A,,Clear,160,2013-08-23 19:53:00
1:53 PM,72.0,55.0,55,29.89,10.0,SSE,8.1,17.3,N/A,,Clear,160,2013-08-23 20:53:00
2:53 PM,70.0,54.0,57,29.89,10.0,SE,11.5,-,N/A,,Clear,140,2013-08-23 21:53:00
3:53 PM,69.1,54.0,58,29.89,10.0,SE,9.2,-,N/A,,Partly Cloudy,130,2013-08-23 22:53:00
4:53 PM,70.0,54.0,57,29.88,10.0,SE,9.2,-,N/A,,Clear,130,2013-08-23 23:53:00
5:53 PM,68.0,53.1,59,29.87,10.0,SSW,3.5,-,N/A,,Clear,210,2013-08-24 00:53:00
6:53 PM,64.0,53.1,67,29.87,10.0,SW,4.6,-,N/A,,Mostly Cloudy,220,2013-08-24 01:53:00
7:53 PM,61.0,54.0,78,29.87,10.0,WSW,4.6,-,0.00,,Overcast,250,2013-08-24 02:53:00
8:53 PM,57.9,55.9,93,29.88,10.0,Calm,Calm,-,0.00,Rain,Light Rain,0,2013-08-24 03:53:00
9:53 PM,59.0,57.0,93,29.89,9.0,Calm,Calm,-,0.00,Rain,Light Rain,0,2013-08-24 04:53:00
10:53 PM,57.9,55.9,93,29.89,10.0,Calm,Calm,-,0.00,,Overcast,0,2013-08-24 05:53:00
11:53 PM,57.9,57.0,97,29.89,10.0,Calm,Calm,-,0.00,Rain,Light Rain,0,2013-08-24 06:53:00